• In Uzbekistan
  • List of Countries
  • For 7 days
  • Water Temperature
  • Satellite Maps
  • Weather Map
  • Weather Widgets
  • user-avatar
    Login

    Hourly Weather Midlothian

    Today, 21 June, Thursday

    Time Temperature Precipitation Wind Pressure Humidity
    00:00 +4°C° 0 mm 7 mps 739 mmHg 86%
    01:00 +3°C° 0 mm 7 mps 739 mmHg 85%
    02:00 +3°C° 0 mm 6 mps 740 mmHg 85%
    03:00 +3°C° 0 mm 6 mps 740 mmHg 84%
    04:00 +4°C° 0 mm 6 mps 741 mmHg 82%
    05:00 +4°C° 0 mm 6 mps 742 mmHg 80%
    06:00 +5°C° 0 mm 6 mps 742 mmHg 78%
    07:00 +6°C° 0 mm 7 mps 743 mmHg 74%
    08:00 +8°C° 0 mm 7 mps 744 mmHg 70%
    09:00 +10°C° 0 mm 7 mps 744 mmHg 66%
    10:00 +11°C° 0 mm 7 mps 745 mmHg 64%
    11:00 +11°C° 0 mm 7 mps 745 mmHg 61%
    12:00 +12°C° 0 mm 7 mps 745 mmHg 59%
    13:00 +14°C° 0 mm 7 mps 745 mmHg 59%
    14:00 +14°C° 0 mm 7 mps 746 mmHg 59%
    15:00 +14°C° 0 mm 7 mps 746 mmHg 59%
    16:00 +14°C° 0 mm 6 mps 746 mmHg 63%
    17:00 +14°C° 0 mm 6 mps 746 mmHg 66%
    18:00 +13°C° 0 mm 5 mps 747 mmHg 69%
    19:00 +12°C° 0 mm 5 mps 747 mmHg 72%
    20:00 +9°C° 0 mm 5 mps 747 mmHg 75%
    21:00 +8°C° 0 mm 5 mps 748 mmHg 78%
    22:00 +7°C° 0 mm 5 mps 748 mmHg 82%
    23:00 +6°C° 0 mm 4 mps 748 mmHg 86%

    Tomorrow, 22 June, Friday

    Time Temperature Precipitation Wind Pressure Humidity
    00:00 +5°C° 0 mm 4 mps 748 mmHg 91%
    01:00 +4°C° 0 mm 4 mps 748 mmHg 92%
    02:00 +4°C° 0 mm 4 mps 748 mmHg 93%
    03:00 +3°C° 0 mm 4 mps 748 mmHg 94%
    04:00 +4°C° 0 mm 4 mps 748 mmHg 91%
    05:00 +5°C° 0 mm 4 mps 748 mmHg 88%
    06:00 +6°C° 0 mm 4 mps 748 mmHg 85%
    07:00 +8°C° 0 mm 4 mps 749 mmHg 79%
    08:00 +11°C° 0 mm 4 mps 749 mmHg 72%
    09:00 +12°C° 0 mm 4 mps 749 mmHg 66%
    10:00 +13°C° 0 mm 4 mps 749 mmHg 64%
    11:00 +14°C° 0 mm 4 mps 749 mmHg 63%
    12:00 +15°C° 0 mm 4 mps 749 mmHg 61%
    13:00 +17°C° 0 mm 4 mps 749 mmHg 63%
    14:00 +17°C° 0 mm 4 mps 748 mmHg 64%
    15:00 +17°C° 0 mm 4 mps 748 mmHg 66%
    16:00 +17°C° 0 mm 4 mps 748 mmHg 69%
    17:00 +15°C° 0 mm 5 mps 748 mmHg 71%
    18:00 +15°C° 0 mm 5 mps 748 mmHg 74%
    19:00 +13°C° 0 mm 5 mps 748 mmHg 78%
    20:00 +11°C° 0 mm 4 mps 748 mmHg 81%
    21:00 +8°C° 0 mm 4 mps 748 mmHg 85%
    22:00 +7°C° 0 mm 4 mps 747 mmHg 88%
    23:00 +6°C° 0 mm 4 mps 747 mmHg 91%

    Day after tomorrow, 23 June, Saturday

    Time Temperature Precipitation Wind Pressure Humidity
    00:00 +5°C° 0 mm 4 mps 747 mmHg 94%
    01:00 +5°C° 0 mm 4 mps 747 mmHg 94%
    02:00 +5°C° 0 mm 4 mps 747 mmHg 95%
    03:00 +5°C° 0 mm 4 mps 747 mmHg 95%
    04:00 +6°C° 0 mm 4 mps 747 mmHg 93%
    05:00 +7°C° 0 mm 4 mps 747 mmHg 91%
    06:00 +8°C° 0 mm 4 mps 746 mmHg 88%
    07:00 +10°C° 0 mm 4 mps 747 mmHg 84%
    08:00 +10°C° 0 mm 5 mps 747 mmHg 79%
    09:00 +12°C° 0 mm 5 mps 747 mmHg 75%
    10:00 +13°C° 0 mm 5 mps 747 mmHg 73%
    11:00 +14°C° 0 mm 5 mps 747 mmHg 71%
    12:00 +15°C° 0 mm 5 mps 747 mmHg 68%
    13:00 +17°C° 0 mm 4 mps 746 mmHg 68%
    14:00 +17°C° 0 mm 4 mps 746 mmHg 68%
    15:00 +17°C° 0 mm 4 mps 746 mmHg 68%
    16:00 +17°C° 0 mm 4 mps 746 mmHg 71%
    17:00 +17°C° 0 mm 4 mps 746 mmHg 73%
    18:00 +16°C° 0 mm 3 mps 746 mmHg 75%
    19:00 +14°C° 0 mm 3 mps 746 mmHg 81%
    20:00 +13°C° 0 mm 3 mps 746 mmHg 86%
    21:00 +11°C° 0 mm 3 mps 746 mmHg 91%
    22:00 +10°C° 0 mm 3 mps 746 mmHg 92%
    23:00 +10°C° 0 mm 3 mps 746 mmHg 93%

    24 June, Sunday

    Time Temperature Precipitation Wind Pressure Humidity
    00:00 +9°C° 0 mm 3 mps 746 mmHg 95%
    01:00 +9°C° 0 mm 2 mps 746 mmHg 95%
    02:00 +8°C° 0 mm 2 mps 746 mmHg 95%
    03:00 +8°C° 0 mm 2 mps 745 mmHg 95%
    04:00 +9°C° 0 mm 2 mps 745 mmHg 93%
    05:00 +10°C° 0 mm 2 mps 745 mmHg 90%
    06:00 +12°C° 0 mm 2 mps 745 mmHg 88%
    07:00 +14°C° 0 mm 1 mps 746 mmHg 83%
    08:00 +16°C° 0 mm 1 mps 746 mmHg 78%
    09:00 +19°C° 0 mm 1 mps 746 mmHg 73%
    10:00 +20°C° 0 mm 1 mps 746 mmHg 71%
    11:00 +20°C° 0 mm 1 mps 746 mmHg 69%
    12:00 +20°C° 0 mm 2 mps 746 mmHg 67%
    13:00 +20°C° 0 mm 2 mps 746 mmHg 68%
    14:00 +21°C° 0 mm 2 mps 746 mmHg 69%
    15:00 +21°C° 0 mm 3 mps 746 mmHg 70%
    16:00 +20°C° 0 mm 3 mps 746 mmHg 72%
    17:00 +20°C° 0 mm 3 mps 746 mmHg 74%
    18:00 +20°C° 0 mm 3 mps 745 mmHg 76%
    19:00 +18°C° 0 mm 2 mps 745 mmHg 79%
    20:00 +16°C° 0 mm 2 mps 746 mmHg 82%
    21:00 +15°C° 0 mm 2 mps 746 mmHg 85%
    22:00 +14°C° 0 mm 2 mps 746 mmHg 86%
    23:00 +13°C° 0 mm 2 mps 746 mmHg 87%

    25 June, Monday

    Time Temperature Precipitation Wind Pressure Humidity
    00:00 +12°C° 0 mm 2 mps 746 mmHg 88%
    01:00 +12°C° 0 mm 2 mps 745 mmHg 89%
    02:00 +12°C° 0 mm 2 mps 745 mmHg 90%
    03:00 +12°C° 0 mm 2 mps 745 mmHg 91%
    04:00 +13°C° 0 mm 2 mps 745 mmHg 90%
    05:00 +14°C° 0 mm 2 mps 745 mmHg 88%
    06:00 +15°C° 0 mm 2 mps 745 mmHg 86%
    07:00 +16°C° 0 mm 2 mps 746 mmHg 80%
    08:00 +18°C° 0 mm 2 mps 746 mmHg 74%
    09:00 +19°C° 0 mm 2 mps 746 mmHg 67%
    10:00 +20°C° 0 mm 2 mps 746 mmHg 65%
    11:00 +22°C° 0 mm 1 mps 746 mmHg 62%
    12:00 +23°C° 0 mm 1 mps 746 mmHg 60%
    13:00 +23°C° 0 mm 1 mps 746 mmHg 60%
    14:00 +24°C° 0 mm 2 mps 746 mmHg 60%
    15:00 +24°C° 0 mm 2 mps 746 mmHg 60%
    16:00 +24°C° 0 mm 2 mps 746 mmHg 64%
    17:00 +23°C° 0 mm 2 mps 746 mmHg 68%
    18:00 +23°C° 0 mm 2 mps 746 mmHg 72%
    19:00 +20°C° 0 mm 2 mps 746 mmHg 77%
    20:00 +18°C° 0 mm 2 mps 746 mmHg 83%
    21:00 +16°C° 0 mm 2 mps 746 mmHg 88%
    22:00 +15°C° 0 mm 1 mps 746 mmHg 89%
    23:00 +15°C° 0 mm 1 mps 746 mmHg 90%

    26 June, Tuesday

    Time Temperature Precipitation Wind Pressure Humidity
    00:00 +14°C° 0 mm 1 mps 746 mmHg 91%
    01:00 +14°C° 0 mm 1 mps 746 mmHg 91%
    02:00 +13°C° 0 mm 1 mps 746 mmHg 91%
    03:00 +13°C° 0 mm 1 mps 746 mmHg 91%
    04:00 +14°C° 0 mm 1 mps 746 mmHg 89%
    05:00 +14°C° 0 mm 0 mps 746 mmHg 87%
    06:00 +15°C° 0 mm 0 mps 746 mmHg 85%
    07:00 +17°C° 0 mm 0 mps 746 mmHg 80%
    08:00 +20°C° 0 mm 1 mps 747 mmHg 75%
    09:00 +22°C° 0 mm 1 mps 747 mmHg 70%
    10:00 +23°C° 0 mm 1 mps 747 mmHg 68%
    11:00 +23°C° 0 mm 1 mps 747 mmHg 66%
    12:00 +24°C° 0 mm 2 mps 747 mmHg 63%
    13:00 +24°C° 0 mm 2 mps 747 mmHg 65%
    14:00 +24°C° 0 mm 2 mps 747 mmHg 66%
    15:00 +24°C° 0 mm 3 mps 747 mmHg 68%
    16:00 +24°C° 0 mm 3 mps 747 mmHg 72%
    17:00 +22°C° 0 mm 3 mps 747 mmHg 76%
    18:00 +21°C° 0 mm 3 mps 747 mmHg 80%
    19:00 +20°C° 0 mm 3 mps 747 mmHg 84%
    20:00 +18°C° 0 mm 2 mps 747 mmHg 89%
    21:00 +16°C° 0 mm 2 mps 747 mmHg 93%
    22:00 +16°C° 0 mm 2 mps 747 mmHg 93%
    23:00 +15°C° 0 mm 2 mps 747 mmHg 93%
    Show more